Location: �clusier
(49.9361°N, 2.7869°E)
Time: 13:08:35
(UTC+00:00)

Cosmos 2237 Rocket - Visible Passes

Search period start: 22 October 2021 00:00
Search period end: 01 November 2021 00:00
Orbit: 833 x 851 km, 71.0° (Epoch: 21 October)

Date Brightness Start Highest point End Pass type
(mag) Time Alt. Az. Time Alt. Az. Time Alt. Az.
22 Oct 4.7 03:56:39 10° N 04:00:02 16° NNE 04:03:24 10° ENE visible
22 Oct 3.1 05:39:54 10° NNW 05:45:29 53° NE 05:51:01 10° SE visible
23 Oct 4.7 03:41:48 10° N 03:45:06 15° NNE 03:48:23 10° ENE visible
23 Oct 3.1 05:25:02 10° NNW 05:30:35 51° NE 05:36:06 10° SE visible
24 Oct 4.8 03:26:58 10° N 03:30:10 15° NNE 03:33:21 10° ENE visible
24 Oct 3.1 05:10:10 10° NNW 05:15:42 49° NE 05:21:11 10° SE visible
25 Oct 4.8 03:12:08 10° N 03:15:14 15° NNE 03:18:20 10° ENE visible
25 Oct 3.2 04:55:18 10° NNW 05:00:49 47° NE 05:06:16 10° SE visible
26 Oct 4.8 02:57:18 10° N 03:00:18 14° NNE 03:03:17 10° ENE visible
26 Oct 3.2 04:40:26 10° NNW 04:45:55 45° NE 04:51:20 10° SE visible
27 Oct 4.8 02:42:27 10° N 02:45:21 14° NNE 02:48:15 10° ENE visible
27 Oct 3.3 04:25:34 10° NNW 04:31:01 44° NE 04:36:25 10° ESE visible
28 Oct 4.9 02:27:41 10° N 02:30:25 14° NNE 02:33:12 10° ENE visible
28 Oct 3.3 04:10:42 10° NNW 04:16:07 42° NE 04:21:29 10° ESE visible
28 Oct 2.7 05:54:55 10° NW 06:00:11 40° WSW 06:05:24 10° S visible
29 Oct 4.8 02:13:39 12° N 02:15:29 13° NNE 02:18:09 10° NE visible
29 Oct 3.4 03:55:51 10° NNW 04:01:13 41° NE 04:06:33 10° ESE visible
29 Oct 2.6 05:40:01 10° NW 05:45:19 42° WSW 05:50:35 10° S visible
30 Oct 4.9 01:59:45 13° NNE 02:00:32 13° NNE 02:03:06 10° NE visible
30 Oct 3.4 03:41:38 13° NNW 03:46:19 39° NE 03:51:36 10° ESE visible
30 Oct 2.5 05:25:06 10° NW 05:30:28 44° WSW 05:35:46 10° S visible
30 Oct 3.9 18:37:31 10° SSE 18:39:07 18° SSE 18:39:07 18° SSE visible
30 Oct 4.7 20:20:42 10° SW 20:21:03 12° SW 20:21:03 12° SW visible
31 Oct 4.9 01:46:01 13° NNE 01:46:01 13° NNE 01:48:02 10° NE visible
31 Oct 3.5 03:27:54 19° N 03:31:25 38° NE 03:36:40 10° ESE visible
31 Oct 2.5 05:10:12 10° NW 05:15:36 46° WSW 05:20:57 10° S visible
31 Oct 3.3 18:22:45 10° SSE 18:26:02 26° SE 18:26:02 26° SE visible
31 Oct 4.0 20:05:47 10° SW 20:07:57 23° SW 20:07:57 23° SW visible
